IRIDIUM 33 DEB, 38474

Orbit data source: Space-Track

IRIDIUM 33 DEB, 38474 is space debris in LEO originally from a launch on Sun, 14 Sep 1997 UTC launched from the Tyuratam Missile And Space Complex (TTMTR). The debris from Iridium 33, an American commercial communications satellite, has been tracked extensively since its accidental collision with the defunct Russian satellite Cosmos 2251 in 2009. This event, occurring at high speed in low Earth orbit (LEO), generated thousands of pieces of space debris, significantly increasing the risk of further collisions. The Iridium 33 debris cloud has impacted space traffic management and orbital debris mitigation strategies, making it a subject of ongoing study in space situational awareness.

Loading next visibility...
Identifier
38474, 1997-051AAB
Orbit
LEO
Country
Flag of USUS
Related business
Manufacturer
Unknown
Mission
Spacecraft
Bus & Motor
Unknown
Mass
Unknown
Launch date (UTC)
1997-09-14 (28 years ago)
Launch vehicle
Unknown
Launch site
Tyuratam Missile And Space Complex (TTMTR)
Object type
Payload
Rocket body
Debris
Shape & HBR
Unknown shape, 0.1 m
Radar Cross Section
Small (<0.1 m²)

Expand to show TLE details & history
Last TLE update: 2 days ago

TLE from 2 days ago
0 IRIDIUM 33 DEB
1 38474U 97051AAB 25306.94971366  .00002921  00000-0  73956-3 0  9996
2 38474  86.3475  27.3895 0025332 216.6851 143.2621 14.50431924647413
Epoch: 2025-11-02T22:47Z
TLE epoch observation values (Epoch: 2025-11-02T22:47:35.260Z)
Latitude
0.00003°
Longitude
3.03449°
Altitude
741.749 km
Speed
7.476 km/s
True Right ascension
01h 49m 33s
True Declination
0° 00' 00"
Sunlit
Object was in full shadow at epoch
Visualization orbit readout
Latitude
Unknown
Longitude
Unknown
Altitude
Unknown
Speed
Unknown
Apparent Right ascension
Unknown
Apparent Declination
Unknown
Sunlit
N/A
Visualization observer readout
Local Sidereal Time
14:28:55
Azimuth
Unknown
Elevation
Unknown
Doppler factor
Unknown
Orbital elements
Apogee altitude
739.165 km
Perigee altitude
703.197 km
Semi-major axis
7,099.318 km
Eccentricity
0.00253
Inclination
86.3475°
RAAN
27.3895°
Arg. of periapsis
216.6851°
True anomaly
143.43529°
Mean anomaly
143.2621°
Eccentric anomaly
143.34874°
Mean motion
3.62843 °/min
Orbital period
99.22 mins
BSTAR
0.00073956

Documentation

Showing up to 5 results
|